Regional Weather Roundup
Issued by NWS Newport/Morehead, NC

Current Version | Previous Version | Text Only | Print | Product List | Glossary Off
Versions: 1 2 3 4 5 6 7 8 9 10 11 12 13 14 15 16 17 18 19 20 21 22 23 24 25 26 27 28 29 30 31 32 33 34 35 36 37 38 39 40 41 42 43 44 45 46 47 48 49 50

000
ASUS42 KMHX 240913
RWRMHX
WEATHER ROUNDUP FOR EASTERN NORTH CAROLINA
NATIONAL WEATHER SERVICE NEWPORT/MOREHEAD CITY NC
500 AM EDT SAT SEP 24 2016

NOTE: "FAIR" INDICATES FEW OR NO CLOUDS BELOW 12,000 FEET
WITH NO SIGNIFICANT WEATHER AND/OR OBSTRUCTIONS TO VISIBILITY

NCZ015>017-031-032-045>047-102-103-241000-
NORTH COAST

CITY           SKY/WX    TMP DP  RH WIND       PRES   REMARKS
EDENTON        CLOUDY    68  68 100 N3        30.01S FOG
ELIZABETH CITY FOG       65  64  97 CALM      30.00S VSB 1/4
KITTY HAWK     NOT AVBL
MANTEO         CLEAR     66  66 100 CALM      30.00S FOG

$$

NCZ045>047-081-094-103-104-241000-
CENTRAL COAST

CITY           SKY/WX    TMP DP  RH WIND       PRES   REMARKS
FRISCO         CLEAR     74  70  87 VRB5      29.98R

$$

NCZ095-097-098-100-101-241000-
SOUTHERN COAST

CITY           SKY/WX    TMP DP  RH WIND       PRES   REMARKS
BEAUFORT       CLEAR     73  71  93 CALM      29.99R
CEDAR ISLAND   NOT AVBL
JACKSONVILLE   CLOUDY    71  70  96 CALM      29.99S FOG
PINEY ISLAND   SUNNY    N/A N/A N/A N3        29.98S
WILMINGTON     MOCLDY    71  70  96 N5        29.99S


$$

NCZ011>013-027>030-043-044-078>080-089-090>093-098-241000-
COASTAL PLAIN

CITY           SKY/WX    TMP DP  RH WIND       PRES   REMARKS
AHOSKIE        PTCLDY    63  63  99 CALM      30.02S FOG
CLINTON        CLEAR     68  68 100 CALM      30.02S
ELIZABETHTOWN  CLEAR     70  70 100 CALM      30.01S FOG
GOLDSBORO      CLEAR     69  69 100 NW2       30.00S
GREENVILLE     FOG       66  66 100 CALM      30.03S VSB 1/2
HAVELOCK       CLEAR     73  71  93 CALM      30.00S
KENANSVILLE    CLEAR     68  66  94 CALM      30.01S FOG
KINSTON          N/A     67  67  99 CALM      30.02R FOG
NEW BERN       FOG       70  69  97 NW3       30.01R VSB 1
RICHLANDS      CLEAR     68  68 100 CALM      30.00F FOG
ROCKY MOUNT    FOG       64  64 100 CALM      30.02S VSB 1/2
WASHINGTON     PTCLDY    66  66  99 CALM      30.01S FOG
WHITEVILLE     CLEAR     70  69  96 CALM      30.00S

$$

AMZ130-135-150-152-154-156-158-170-250-252-270-ANZ085-086-088-633-658-670-241000-
MARINE OBSERVATIONS

STATION/POSITION TIME  TEMP    WIND        PRES    WAVE   SWELL
                       AIR SEA DIR/SP/G            HT/PER HT/PER
                 (UTC) (F)     (DEG/KT/KT) (MB)    (FT/S) (FT/S)
CHESAPEAKE LIGHT NOT AVBL
64 E VA BEACH    0750   74 76  340/ 10/ 12 1015.0    3/11   3/11
DUCK             0848   73 77  320/  5/  7 1015.1
2 E DUCK         0841      76                N/A     3/11   2/11
OREGON INLET     0848   72 80  330/  4/  5 1015.3
13E OREGON INLT  0900      77                N/A     4/10   3/10
HATTERAS CG      0848   77 82   10/ 10/ 12 1014.7
DIAMOND BUOY     0750   77 81  360/ 10/ 12 1014.6    5/11   5/11
CAPE LOOKOUT     0900   76      10/  7/  8 1014.9
BEAUFORT LAB     0848   74 80   40/  2/  3 1014.6
30 SE NEW RVR IN 0808   79 82   50/ 12/ 16 1014.8
30 SE NEW RVR IN 0855      82                N/A     4/11   2/11
27 SE WRIGHTSVLE 0808   79 81   50/ 10/ 16 1014.9
5 SE WRIGHTSVLE  0808   79 81   40/ 10/ 14 1016.0
225 S CAPE HAT   0750   82 83  250/  8/ 12 1014.7    6/11   5/11
41 SE CHARLESTON 0750   79 82   CALM  /  2 1014.2    3/10   3/10

$$




USA.gov is the U.S. government's official web portal to all federal, state and local government web resources and services.